Content
SEND FEEDBACK

Daily
Averages
Monthly
Summary
United States of America

CHICAGO, ILLINOIS


Home > North America > United States > Illinois
Elevation: 674 feet     Latitude: 41 59N     Longitude: 087 54W

WEATHER
 
SELECT A DAY
Number of Records: 197,818;   Date Range: 7/8/95 - 10/20/14
 
SHARE

PRINT THIS DATA

[ ← Previous Day ]
WEATHER ALMANAC - DECEMBER 25, 2013
[ Next Day → ]
[ °C ]   °F
Weather ElementAverageHighLow
Temperature23.8 °F26.6 °F (4:01 pm)19 °F (1:52 am)
Dewpoint19 °F23 °F (4:52 pm)10.4 °F (3:41 am)
Humidity82 %88 % (4:52 pm)68 % (2:52 am)
Barometer30.19 in30.35 in (1:52 am)30.09 in (10:18 pm)
Wind Speed9.1 mph18.4 mph (3:52 am)
Wind Gust24.2 mph (3:52 am)
Weather ElementAverage
Visibility3.9 mi
Wind DirectionSSW (218.6 °)

Weather ElementTotal
Precipitation---
Heating Degree Days42.2 (Base 65)
Averaged from 43 records on December 25, 2013
WEATHER CONDITIONS BREAKOUT
WIND DIRECTION BREAKOUT
WEATHER BY HOUR - DECEMBER 25, 2013
[ °C ]   °F
Local TimeTemperatureDewpointHumidityBarometerVisibilityWind DirectionWind SpeedGust SpeedPrecipitationEventsConditions
1:52 AM19.0 °F10.9 °F71 %30.35 in10.0 miSouth (180°)12.7 mphOvercast
2:52 AM19.9 °F10.9 °F68 %30.31 in10.0 miSouth (180°)16.1 mphOvercast
3:41 AM19.4 °F10.4 °F68 %30.27 in10.0 miSouth (190°)13.8 mph19.6 mphOvercast
3:52 AM19.9 °F12.0 °F71 %30.30 in9.0 miSouth (190°)18.4 mph24.2 mphOvercast
4:52 AM19.9 °F14.0 °F78 %30.28 in2.0 miSouth (190°)12.7 mph0.00 inSnowLight Snow
4:59 AM19.4 °F14.0 °F80 %30.24 in1.5 miSouth (190°)9.2 mph0.00 inSnowLight Snow
5:10 AM19.4 °F15.8 °F86 %30.24 in2.0 miSouth (190°)9.2 mph0.00 inSnowLight Snow
5:21 AM19.4 °F15.8 °F86 %30.24 in1.8 miSSW (200°)10.4 mph0.00 inSnowLight Snow
5:30 AM19.4 °F15.8 °F86 %30.24 in2.5 miSouth (190°)11.5 mph0.00 inSnowLight Snow
5:35 AM19.4 °F15.8 °F86 %30.24 in3.0 miSSW (200°)11.5 mph0.00 inSnowLight Snow
5:52 AM19.9 °F15.1 °F81 %30.28 in2.0 miSouth (190°)10.4 mph0.00 inSnowLight Snow
6:00 AM19.4 °F15.8 °F86 %30.24 in2.5 miSouth (190°)9.2 mph0.00 inSnowLight Snow
6:52 AM21.0 °F15.1 °F78 %30.28 in2.0 miSSW (200°)12.7 mph0.00 inHaze
6:59 AM21.2 °F15.8 °F80 %30.24 in10.0 miSSW (200°)12.7 mphOvercast
7:52 AM21.0 °F16.0 °F81 %30.27 in7.0 miSSW (210°)11.5 mphOvercast
8:52 AM21.9 °F17.1 °F82 %30.26 in7.0 miSSW (210°)9.2 mphOvercast
9:52 AM23.0 °F18.0 °F81 %30.26 in7.0 miSSW (210°)8.1 mphOvercast
10:52 AM24.1 °F19.0 °F81 %30.24 in8.0 miSSW (210°)10.4 mphOvercast
11:52 AM25.0 °F19.0 °F78 %30.22 in8.0 miSSW (210°)8.1 mphOvercast
12:52 PM25.0 °F19.9 °F81 %30.19 in8.0 miWSW (240°)8.1 mphOvercast
1:52 PM26.1 °F19.9 °F78 %30.18 in7.0 miWSW (240°)8.1 mphOvercast
2:52 PM26.1 °F21.0 °F81 %30.18 in7.0 miSW (220°)12.7 mphOvercast
3:52 PM26.1 °F21.0 °F81 %30.17 in2.5 miSW (220°)8.1 mph0.00 inSnowLight Snow
4:01 PM26.6 °F21.2 °F80 %30.13 in1.0 miSSW (210°)5.8 mph0.00 inSnowLight Snow
4:52 PM26.1 °F23.0 °F88 %30.16 in1.0 miSW (220°)6.9 mph0.00 inSnowLight Snow
5:26 PM26.6 °F23.0 °F86 %30.13 in1.0 miSW (220°)3.5 mph0.00 inSnowLight Snow
5:31 PM26.6 °F23.0 °F86 %30.13 in2.0 miSW (230°)5.8 mph0.00 inSnowLight Snow
5:45 PM26.6 °F23.0 °F86 %30.13 in4.0 miSW (230°)4.6 mph0.00 inSnowLight Snow
5:52 PM26.1 °F23.0 °F88 %30.16 in3.0 miSW (230°)5.8 mph0.00 inSnowLight Snow
6:04 PM26.6 °F23.0 °F86 %30.13 in2.0 miSW (230°)6.9 mph0.00 inSnowLight Snow
6:11 PM26.6 °F23.0 °F86 %30.13 in1.8 miSW (230°)6.9 mph0.00 inSnowLight Snow
6:23 PM26.6 °F23.0 °F86 %30.13 in1.2 miSW (230°)6.9 mph0.00 inSnowLight Snow
6:39 PM26.6 °F23.0 °F86 %30.13 in2.5 miSW (230°)8.1 mph0.00 inSnowLight Snow
6:49 PM26.6 °F23.0 °F86 %30.12 in3.0 miSW (230°)8.1 mph0.00 inSnowLight Snow
6:52 PM26.1 °F23.0 °F88 %30.15 in3.0 miWSW (240°)6.9 mph0.00 inSnowLight Snow
7:14 PM26.6 °F21.2 °F80 %30.12 in2.5 miWSW (240°)10.4 mph0.00 inSnowLight Snow
7:52 PM26.1 °F23.0 °F88 %30.14 in2.0 miWSW (240°)5.8 mph0.00 inSnowLight Snow
7:59 PM26.6 °F23.0 °F86 %30.11 in1.0 miSW (230°)5.8 mph0.00 inSnowLight Snow
8:52 PM26.1 °F21.9 °F84 %30.14 in1.0 miSW (230°)5.8 mph0.00 inSnowLight Snow
9:52 PM26.1 °F21.0 °F81 %30.13 in1.0 miWest (260°)8.1 mph0.00 inHaze
10:18 PM26.6 °F21.2 °F80 %30.09 in1.0 miWest (270°)9.2 mphHaze
10:52 PM26.1 °F21.0 °F81 %30.12 in1.0 miWest (270°)6.9 mphHaze
11:52 PM26.1 °F21.9 °F84 %30.12 in1.0 miWest (280°)9.2 mphOvercast
Hourly data recorded from KPWK, located miles away from Chicago, Illinois







STORIES FROM OUR PARTNERS